Location: Tierz
(42.1336°N, 0.3549°W)
Time: 14:57:44
(UTC+00:00)

Lacrosse 5 - Pass Details

Date: 29 October 2020
Orbit: 716 x 723 km, 57.0° (Epoch: 06 November)

Event Time Altitude Azimuth Distance (km) Brightness Sun altitude
Rises 19:55:14 0° 317° (NW) 3,125 5.9 -33.2°
Reaches altitude 10° 19:57:53 10° 327° (NNW) 2,203 4.8 -33.7°
Enters shadow 19:59:23 18° 339° (NNW) 1,734 4.1 -33.9°
